Hourly Weather Bolshie Tarhany

Today, 16 June, Wednesday

Time Temperature Precipitation Wind Pressure Humidity
00:00 +18°C° 0.3 mm 4 mps 747 mmHg 91%
01:00 +18°C° 0 mm 4 mps 747 mmHg 91%
02:00 +18°C° 0 mm 3 mps 747 mmHg 92%
03:00 +18°C° 0 mm 3 mps 746 mmHg 93%
04:00 +19°C° 0 mm 3 mps 746 mmHg 89%
05:00 +19°C° 0 mm 2 mps 746 mmHg 85%
06:00 +20°C° 0 mm 2 mps 745 mmHg 81%
07:00 +21°C° 0 mm 2 mps 745 mmHg 74%
08:00 +24°C° 0 mm 3 mps 745 mmHg 68%
09:00 +25°C° 0 mm 3 mps 745 mmHg 61%
10:00 +25°C° 0 mm 3 mps 745 mmHg 61%
11:00 +26°C° 0 mm 3 mps 745 mmHg 61%
12:00 +27°C° 0 mm 3 mps 745 mmHg 61%
13:00 +27°C° 0.3 mm 3 mps 745 mmHg 61%
14:00 +27°C° 0.3 mm 3 mps 744 mmHg 61%
15:00 +28°C° 0.3 mm 2 mps 744 mmHg 61%
16:00 +27°C° 0.8 mm 3 mps 744 mmHg 66%
17:00 +26°C° 0.8 mm 3 mps 744 mmHg 71%
18:00 +26°C° 0.8 mm 3 mps 744 mmHg 76%
19:00 +23°C° 0.7 mm 4 mps 745 mmHg 81%
20:00 +22°C° 0.7 mm 5 mps 745 mmHg 86%
21:00 +20°C° 0.7 mm 6 mps 745 mmHg 92%
22:00 +19°C° 0.3 mm 6 mps 746 mmHg 92%
23:00 +17°C° 0.3 mm 6 mps 746 mmHg 93%

Tomorrow, 17 June, Thursday

Time Temperature Precipitation Wind Pressure Humidity
00:00 +17°C° 0.3 mm 6 mps 747 mmHg 94%
01:00 +16°C° 0 mm 6 mps 748 mmHg 93%
02:00 +15°C° 0 mm 6 mps 748 mmHg 92%
03:00 +15°C° 0 mm 5 mps 749 mmHg 91%
04:00 +15°C° 0 mm 5 mps 750 mmHg 88%
05:00 +15°C° 0 mm 5 mps 750 mmHg 85%
06:00 +16°C° 0 mm 5 mps 751 mmHg 82%
07:00 +17°C° 0 mm 5 mps 751 mmHg 75%
08:00 +19°C° 0 mm 5 mps 752 mmHg 67%
09:00 +20°C° 0 mm 5 mps 752 mmHg 59%
10:00 +21°C° 0 mm 5 mps 752 mmHg 56%
11:00 +21°C° 0 mm 5 mps 753 mmHg 53%
12:00 +22°C° 0 mm 5 mps 753 mmHg 51%
13:00 +22°C° 0 mm 5 mps 753 mmHg 50%
14:00 +22°C° 0 mm 5 mps 753 mmHg 50%
15:00 +22°C° 0 mm 5 mps 753 mmHg 50%
16:00 +22°C° 0 mm 4 mps 754 mmHg 54%
17:00 +21°C° 0 mm 4 mps 754 mmHg 59%
18:00 +21°C° 0 mm 4 mps 754 mmHg 64%
19:00 +19°C° 0 mm 4 mps 754 mmHg 68%
20:00 +18°C° 0 mm 3 mps 755 mmHg 72%
21:00 +16°C° 0 mm 3 mps 755 mmHg 76%
22:00 +14°C° 0 mm 3 mps 755 mmHg 76%
23:00 +14°C° 0 mm 3 mps 755 mmHg 76%

Day after tomorrow, 18 June, Friday

Time Temperature Precipitation Wind Pressure Humidity
00:00 +13°C° 0 mm 3 mps 755 mmHg 75%
01:00 +13°C° 0 mm 3 mps 756 mmHg 75%
02:00 +13°C° 0 mm 3 mps 756 mmHg 75%
03:00 +12°C° 0 mm 3 mps 756 mmHg 75%
04:00 +13°C° 0 mm 3 mps 757 mmHg 73%
05:00 +14°C° 0 mm 3 mps 757 mmHg 71%
06:00 +16°C° 0 mm 3 mps 758 mmHg 69%
07:00 +17°C° 0 mm 3 mps 758 mmHg 63%
08:00 +18°C° 0 mm 3 mps 759 mmHg 58%
09:00 +19°C° 0 mm 3 mps 759 mmHg 52%
10:00 +20°C° 0 mm 3 mps 759 mmHg 51%
11:00 +21°C° 0 mm 3 mps 759 mmHg 50%
12:00 +21°C° 0 mm 3 mps 759 mmHg 48%
13:00 +22°C° 0 mm 3 mps 759 mmHg 49%
14:00 +23°C° 0 mm 2 mps 759 mmHg 49%
15:00 +23°C° 0 mm 2 mps 759 mmHg 50%
16:00 +23°C° 0 mm 2 mps 759 mmHg 54%
17:00 +23°C° 0 mm 2 mps 759 mmHg 59%
18:00 +22°C° 0 mm 1 mps 759 mmHg 63%
19:00 +21°C° 0 mm 1 mps 759 mmHg 65%
20:00 +19°C° 0 mm 1 mps 759 mmHg 67%
21:00 +18°C° 0 mm 1 mps 759 mmHg 69%
22:00 +16°C° 0 mm 1 mps 760 mmHg 70%
23:00 +16°C° 0 mm 1 mps 760 mmHg 71%

19 June, Saturday

Time Temperature Precipitation Wind Pressure Humidity
00:00 +16°C° 0 mm 1 mps 760 mmHg 71%
01:00 +15°C° 0 mm 1 mps 760 mmHg 72%
02:00 +15°C° 0 mm 2 mps 760 mmHg 72%
03:00 +14°C° 0 mm 2 mps 760 mmHg 72%
04:00 +15°C° 0 mm 2 mps 760 mmHg 73%
05:00 +16°C° 0 mm 2 mps 760 mmHg 75%
06:00 +17°C° 0 mm 2 mps 761 mmHg 76%
07:00 +19°C° 0 mm 3 mps 760 mmHg 72%
08:00 +21°C° 0 mm 3 mps 760 mmHg 68%
09:00 +22°C° 0 mm 4 mps 760 mmHg 64%
10:00 +23°C° 0 mm 4 mps 760 mmHg 61%
11:00 +25°C° 0 mm 4 mps 760 mmHg 59%
12:00 +26°C° 0 mm 5 mps 759 mmHg 56%
13:00 +27°C° 0 mm 5 mps 759 mmHg 56%
14:00 +27°C° 0 mm 5 mps 758 mmHg 56%
15:00 +28°C° 0 mm 5 mps 758 mmHg 56%
16:00 +27°C° 0 mm 5 mps 758 mmHg 61%
17:00 +27°C° 0 mm 5 mps 758 mmHg 65%
18:00 +26°C° 0 mm 5 mps 757 mmHg 69%
19:00 +23°C° 0 mm 4 mps 757 mmHg 74%
20:00 +22°C° 0 mm 4 mps 757 mmHg 80%
21:00 +20°C° 0 mm 4 mps 757 mmHg 85%
22:00 +20°C° 0 mm 4 mps 757 mmHg 86%
23:00 +20°C° 0 mm 4 mps 757 mmHg 87%

20 June, Sunday

Time Temperature Precipitation Wind Pressure Humidity
00:00 +20°C° 0 mm 5 mps 757 mmHg 87%
01:00 +19°C° 0 mm 4 mps 757 mmHg 89%
02:00 +19°C° 0 mm 4 mps 758 mmHg 91%
03:00 +18°C° 0 mm 4 mps 758 mmHg 92%
04:00 +19°C° 0 mm 4 mps 758 mmHg 89%
05:00 +20°C° 0 mm 4 mps 758 mmHg 86%
06:00 +21°C° 0 mm 4 mps 758 mmHg 82%
07:00 +23°C° 0 mm 4 mps 758 mmHg 76%
08:00 +25°C° 0 mm 4 mps 758 mmHg 70%
09:00 +26°C° 0 mm 4 mps 758 mmHg 65%
10:00 +27°C° 0 mm 4 mps 758 mmHg 61%
11:00 +28°C° 0 mm 4 mps 758 mmHg 57%
12:00 +29°C° 0 mm 4 mps 758 mmHg 52%
13:00 +29°C° 0 mm 4 mps 757 mmHg 52%
14:00 +29°C° 0 mm 3 mps 757 mmHg 51%
15:00 +30°C° 0 mm 3 mps 757 mmHg 50%
16:00 +29°C° 0 mm 2 mps 757 mmHg 55%
17:00 +29°C° 0 mm 2 mps 757 mmHg 60%
18:00 +28°C° 0 mm 1 mps 757 mmHg 65%
19:00 +27°C° 0 mm 1 mps 757 mmHg 68%
20:00 +25°C° 0 mm 1 mps 757 mmHg 72%
21:00 +23°C° 0 mm 1 mps 757 mmHg 75%
22:00 +23°C° 0 mm 1 mps 757 mmHg 77%
23:00 +22°C° 0 mm 1 mps 757 mmHg 78%

21 June, Monday

Time Temperature Precipitation Wind Pressure Humidity
00:00 +22°C° 0 mm 1 mps 757 mmHg 79%
01:00 +21°C° 0 mm 1 mps 757 mmHg 80%
02:00 +21°C° 0 mm 1 mps 757 mmHg 81%
03:00 +20°C° 0 mm 2 mps 757 mmHg 82%
04:00 +20°C° 0 mm 2 mps 757 mmHg 81%
05:00 +21°C° 0 mm 2 mps 757 mmHg 80%
06:00 +23°C° 0 mm 2 mps 757 mmHg 80%
07:00 +24°C° 0 mm 2 mps 756 mmHg 75%
08:00 +26°C° 0 mm 2 mps 756 mmHg 70%
09:00 +27°C° 0 mm 3 mps 756 mmHg 65%
10:00 +28°C° 0 mm 3 mps 756 mmHg 61%
11:00 +29°C° 0 mm 3 mps 756 mmHg 56%
12:00 +30°C° 0 mm 2 mps 755 mmHg 52%
13:00 +30°C° 0 mm 2 mps 755 mmHg 52%
14:00 +30°C° 0 mm 3 mps 755 mmHg 52%
15:00 +30°C° 0 mm 3 mps 754 mmHg 53%
16:00 +29°C° 0 mm 2 mps 754 mmHg 58%
17:00 +28°C° 0 mm 2 mps 754 mmHg 64%
18:00 +27°C° 0 mm 2 mps 754 mmHg 69%
19:00 +25°C° 0 mm 2 mps 754 mmHg 73%
20:00 +24°C° 0 mm 3 mps 754 mmHg 77%
21:00 +22°C° 0 mm 3 mps 754 mmHg 81%
22:00 +22°C° 0.1 mm 3 mps 753 mmHg 83%
23:00 +21°C° 0.1 mm 3 mps 753 mmHg 85%
Show more